STARLINK-3060, 49155

Orbit data source: Space-Track

STARLINK-3060, 49155 is a payload satellite owned by SpaceX/Seattle (US) in LEO that was launched on Tue, 14 Sep 2021 UTC via an FALCON 9 launch vehicle from the Air Force Western Test Range (AFWTR). Payload-class satellites include a variety of spacecraft equipped with specific instruments for various scientific and technological missions. These include communications satellites like Starlink; space stations such as the ISS; scientific satellites like the Hubble; Earth observation satellites from companies like Planet Labs, Umbra, and HawkEye 360; GPS; miniature CubeSats for education and research; and military/defense satellites.

Loading next visibility...
Identifier
49155, 2021-082AB
Orbit
LEO
Country
Flag of USUS
Related business
Manufacturer
SpaceX/Seattle
Mission
Operational Commercial Communications
Bus & Motor
STARLINK, Unknown motor
Mass
297 kg wet, ~275 kg dry
Launch date (UTC)
2021-09-14 (5 years ago)
Launch vehicle
FALCON 9
Launch site
Air Force Western Test Range (AFWTR)
Object type
Payload
Rocket body
Debris
Shape & HBR
Box + 1 Pan, 10.1 m
Radar Cross Section
13.562 m², Large (>1 m²)

Expand to show TLE details & history
Last TLE update: 13 hours ago

TLE from 13 hours ago
0 STARLINK-3060
1 49155U 21082AB  26125.37601953  .00002261  00000-0  19724-3 0  9994
2 49155  69.9986 111.5213 0003802 266.5206  93.5518 14.98324205256537
Epoch: 2026-05-05T09:01Z
TLE epoch observation values (Epoch: 2026-05-05T09:01:28.087Z)
Latitude
-0.00004°
Longitude
112.9025°
Altitude
574.662 km
Speed
7.574 km/s
True Right ascension
07h 26m 05s
True Declination
0° 00' 00"
Sunlit
Object was in daylight at epoch
Visualization orbit readout
Latitude
Unknown
Longitude
Unknown
Altitude
Unknown
Speed
Unknown
Apparent Right ascension
Unknown
Apparent Declination
Unknown
Sunlit
N/A
Visualization observer readout
Local Sidereal Time
06:25:53
Azimuth
Unknown
Elevation
Unknown
Doppler factor
Unknown
Orbital elements
Apogee altitude
572.664 km
Perigee altitude
567.381 km
Semi-major axis
6,948.159 km
Eccentricity
0.00038
Inclination
69.9986°
RAAN
111.5213°
Arg. of periapsis
266.5206°
True anomaly
93.59528°
Mean anomaly
93.5518°
Eccentric anomaly
93.57354°
Mean motion
3.74747 °/min
Orbital period
96.06 mins
BSTAR
0.00019724
Loading maneuver chart data...
Computing Atmospheric mass density...
Loading historical data...
Loading historical data...
Loading historical data...
Loading historical data...
Loading historical data...
Loading historical data...
Loading historical data...

Documentation

Showing up to 5 results
|